Regional Weather Roundup
Issued by NWS

Home | Current Version | Previous Version | Graphics & Text | Print | Product List | Glossary On
Versions: 1 2 3 4 5 6 7 8 9 10 11 12 13 14 15 16 17 18 19 20 21 22 23 24 25 26 27 28 29 30 31 32 33 34 35 36 37 38 39 40 41 42 43 44 45 46 47 48 49 50
000
ASUS45 KCYS 042110
RWRWY

WYOMING REGIONAL WEATHER ROUNDUP
NATIONAL WEATHER SERVICE CHEYENNE WY
300 PM MDT MON MAY 04 2015

NOTE:  "FAIR" INDICATES FEW OR NO CLOUDS BELOW 12,000 FEET
WITH NO SIGNIFICANT WEATHER AND/OR OBSTRUCTIONS TO VISIBILITY.

WYZ001-042200-
YELLOWSTONE NATIONAL PARK

CITY           SKY/WX    TMP DP  RH WIND       PRES   REMARKS
LK YELLOWSTONE   N/A     51  32  48 VRB3      30.09F
W YELLOWSTONE  NOT AVBL

$$
WYZ002>013-054>058-071-098>099-042200-
NORTHERN WYOMING

CITY           SKY/WX    TMP DP  RH WIND       PRES   REMARKS
JACKSON        PTSUNNY   61  34  36 W9        30.02F
CODY           CLOUDY    55  45  67 S13G35    29.99R THUNDER
GREYBULL       FAIR      73  37  27 VRB5      29.89F
WORLAND        FAIR      72  39  30 VRB3      29.91F
SHERIDAN       FAIR      71  43  36 SE14      29.95F
BUFFALO        PTSUNNY   65  42  43 S8        30.00F
GILLETTE       FAIR      61  40  45 SE28G36   30.03F
HULETT         CLOUDY    61  37  41 S15G23    30.08F
NEWCASTLE      FAIR      55  32  41 SE25G33   30.12F

$$
WYZ014>020-022>026-101>103-042200-
CENTRAL WYOMING

CITY           SKY/WX    TMP DP  RH WIND       PRES   REMARKS
BIG PINEY      FAIR      60  33  36 W6        30.05F
PINEDALE       FAIR      59  28  31 W5        30.05F
DUBOIS         FAIR      59  28  31 NW6       30.03F
LANDER         FAIR      65  44  46 SE7       29.96F
RIVERTON       FAIR      66  39  37 E5        29.98F
CASPER         TSTM      63  42  46 NW9       30.00F
DOUGLAS        FAIR      56  42  59 SE21G26   30.06F

$$
WYZ021-027>030-104>119-042200-
SOUTHERN WYOMING

CITY           SKY/WX    TMP DP  RH WIND       PRES   REMARKS
EVANSTON       CLOUDY    51  40  65 S10       30.05R
KEMMERER       FAIR      59  32  36 E7        30.05F
FORT BRIDGER   CLEAR     63  34  34 E7        30.06F
ROCK SPRINGS   PTSUNNY   62  34  35 CALM      30.01F
DIXON          MOCLDY    67  37  32 N7        30.03S
RAWLINS        FAIR      62  36  37 SE10      30.03F
SARATOGA       FAIR      63  36  36 NW8       30.05F
LARAMIE        PTSUNNY   49  40  71 S23       30.11R
CHEYENNE       PTSUNNY   55  44  66 S9G18     30.10F
TORRINGTON     CLOUDY    58  37  45 E16G22    30.09F
PINE BLUFFS    FAIR      55  43  62 E8        30.12F

$$



USA.gov is the U.S. government's official web portal to all federal, state and local government web resources and services.